Theta_e
326 322 319 317 306 303 296 298 300 301 302 303 305 303 303 305 303 301 320 329 334 342 347 351 351 352 353 353 353 353 352 352 350 349 348 347 345 343 341 340 339 337 335 333 332 334 336 339 341
318 319 318 313 299 294 294 299 299 301 304 304 304 303 303 302 312 317 319 331 334 342 346 348 347 352 352 352 352 353 352 351 349 349 348 345 343 342 341 339 337 336 334 332 331 332 334 337 338
320 317 310 305 299 293 294 298 300 303 304 303 301 305 305 305 314 315 325 331 333 339 345 347 346 351 351 351 352 351 350 348 349 348 347 346 343 341 339 337 335 335 333 330 330 331 334 336 337
315 313 308 298 296 297 298 300 302 302 303 304 304 302 308 317 317 320 328 332 332 337 344 344 347 350 349 350 350 351 350 349 347 347 346 344 342 340 337 335 335 334 332 329 328 328 331 333 333
314 309 301 297 296 297 300 302 301 301 301 301 301 301 305 316 323 326 329 331 333 335 345 346 347 348 348 348 348 348 347 347 347 346 345 343 340 338 336 335 334 333 331 329 326 325 326 327 329
307 304 296 294 296 299 300 301 300 300 302 299 297 303 303 312 320 324 328 329 334 336 344 345 339 342 346 345 345 346 346 346 347 345 344 342 339 337 336 335 334 332 331 329 327 322 322 321 321
303 300 295 295 297 298 301 301 299 299 300 300 302 299 304 307 313 321 324 329 334 337 338 343 342 342 339 341 341 343 344 344 344 343 343 340 339 338 336 335 334 333 331 329 326 320 316 316 315
306 300 294 291 294 296 301 301 302 301 299 304 303 298 297 301 308 319 321 328 331 334 335 337 341 342 342 342 335 337 340 341 341 340 337 334 333 333 332 331 334 332 331 329 326 322 316 313 311
307 296 293 294 295 296 301 299 301 302 299 300 303 301 302 304 308 314 315 320 321 319 319 328 339 338 340 343 336 333 335 336 335 334 330 327 330 330 329 328 331 332 330 328 326 323 320 312 313
301 296 297 298 298 297 301 299 300 298 299 298 300 304 305 306 305 306 306 307 308 308 310 312 318 334 336 339 340 339 338 337 337 335 330 333 330 331 327 323 325 328 328 326 325 323 324 319 312
301 296 298 298 302 302 301 299 300 297 297 298 299 301 303 304 303 304 304 305 305 305 309 310 311 324 335 336 337 335 336 335 336 335 332 335 330 327 324 323 321 322 320 320 321 320 318 314 313
297 301 300 302 302 301 299 301 298 299 297 302 301 302 302 302 301 302 303 304 305 307 310 312 312 313 334 337 331 327 326 325 325 327 333 333 331 329 326 324 320 320 321 319 318 318 317 315 314
298 299 301 302 302 300 302 299 299 297 300 301 302 302 300 300 301 302 303 305 307 306 309 312 315 312 333 326 321 318 316 315 316 319 324 328 326 323 321 319 318 317 317 316 315 316 313 312 312
300 300 301 301 302 301 299 298 299 298 300 300 300 299 298 298 298 300 302 303 305 307 309 315 316 319 318 316 313 311 311 310 311 312 315 319 319 317 316 316 316 315 315 314 314 312 312 310 310
300 296 299 300 300 299 299 295 296 299 300 298 298 297 297 297 299 298 301 301 302 305 308 309 310 312 311 310 308 306 306 305 305 306 308 310 312 312 312 310 309 309 310 310 310 309 309 307 307
296 296 292 299 301 298 298 292 300 299 298 297 297 295 296 296 298 298 301 300 300 303 304 304 305 304 306 306 305 304 302 301 301 302 304 305 306 306 306 305 306 307 306 306 308 306 304 301 300
296 289 292 295 300 297 295 293 296 299 297 296 296 296 296 295 296 298 299 298 300 304 302 300 300 299 299 299 299 299 298 298 298 298 300 301 302 302 301 300 298 298 296 294 298 298 297 293 294
291 290 293 292 296 296 293 293 296 297 297 296 296 296 295 295 294 297 297 297 300 301 300 298 297 296 297 297 296 296 295 294 294 294 294 296 296 296 296 295 294 294 292 291 291 292 292 290 290
295 293 292 295 298 294 293 294 297 296 295 294 295 295 294 294 294 297 297 296 298 300 299 298 296 297 296 296 294 293 291 292 292 292 292 292 293 292 292 291 291 290 289 288 289 289 289 289 290
295 292 292 295 297 294 293 293 297 297 296 296 296 295 294 291 292 296 295 296 296 296 297 297 297 296 296 296 294 293 291 291 289 290 289 289 289 289 290 289 288 288 287 287 286 287 286 287 288
293 292 292 292 296 294 290 290 293 297 298 297 297 296 295 292 291 294 293 293 295 294 295 295 296 295 294 294 293 292 291 289 288 287 287 288 288 288 288 287 287 286 286 285 285 285 284 283 285
290 296 295 294 290 285 292 284 290 295 296 294 293 292 291 291 292 293 293 294 293 294 295 294 294 294 294 294 293 289 287 285 286 287 287 287 287 287 287 286 286 285 285 284 284 285 284 283 282
292 296 293 292 289 287 288 285 288 294 292 292 292 291 291 290 290 291 292 293 292 293 292 292 292 293 292 290 289 288 287 287 288 287 286 285 285 286 286 285 284 284 284 283 283 283 282 283 282
296 292 291 290 288 281 288 287 289 292 294 293 292 292 291 290 289 290 289 291 291 291 290 290 289 289 289 288 288 288 287 287 286 285 285 284 284 283 284 285 284 284 283 283 283 283 282 282 282
293 289 281 281 280 280 289 287 291 293 293 294 292 291 290 289 288 286 286 285 287 288 287 287 287 287 288 288 288 287 287 286 285 285 284 283 282 282 282 283 282 282 282 282 281 281 281 280 280
289 290 283 278 279 280 283 281 288 290 291 294 294 292 290 288 287 285 285 285 285 286 285 286 286 286 287 287 286 286 286 286 285 284 283 282 282 281 282 281 281 281 281 280 279 279 279 278 278
289 286 292 286 277 278 283 286 289 289 288 290 290 290 288 287 286 285 285 286 286 286 286 286 286 286 286 286 286 285 285 285 284 283 282 281 281 282 281 280 279 279 279 278 277 277 277 276 277
292 294 285 286 278 276 282 284 286 285 286 289 288 288 288 287 285 285 285 285 286 285 285 286 286 285 285 285 285 285 285 284 283 282 281 280 280 279 278 278 278 277 277 277 276 276 276 275 275
289 288 289 289 286 280 277 282 288 290 289 288 288 289 288 286 285 284 284 285 285 285 285 285 285 285 285 285 285 284 283 282 281 280 279 279 278 277 277 277 277 276 276 276 275 274 274 274 274
295 291 291 285 281 283 282 283 290 291 291 290 289 289 289 287 285 284 284 284 284 284 285 284 285 284 284 285 284 283 281 280 278 278 278 278 277 277 276 276 276 275 275 274 274 273 273 273 273
Wind_Speed
10 7 4 2 2 2 5 4 2 4 6 5 4 5 11 10 6 4 2 6 3 13 13 10 11 12 12 11 10 10 10 11 12 12 14 16 15 15 14 14 14 15 15 14 14 14 13 12 12
8 7 2 4 2 3 4 6 8 9 7 3 3 2 8 8 7 8 4 6 2 10 12 11 12 12 12 13 9 8 8 10 12 13 15 15 14 14 14 14 13 15 15 15 15 14 14 12 13
8 5 2 2 2 5 6 3 9 7 4 3 3 5 6 5 8 5 7 3 4 7 13 11 11 13 11 14 9 7 6 8 11 14 15 15 14 14 14 14 14 14 15 15 15 15 14 14 13
4 2 4 2 2 5 7 7 7 8 5 1 4 9 7 7 5 5 7 5 7 7 10 12 12 12 10 11 9 7 7 8 9 12 15 15 14 14 14 14 14 14 14 15 15 15 14 14 13
3 3 3 3 6 5 7 7 2 4 5 6 1 7 7 6 7 8 6 6 8 6 11 8 11 11 11 10 9 8 7 8 9 13 15 15 15 15 14 14 14 14 15 15 15 15 14 14 13
3 1 3 4 5 7 6 4 3 3 6 4 2 8 5 7 8 6 7 6 7 7 9 8 7 8 8 8 8 9 8 9 11 14 15 15 15 15 15 15 15 15 15 15 15 15 14 14 14
2 2 5 7 5 5 4 3 4 5 8 5 2 4 7 9 4 5 6 6 8 7 3 8 6 5 7 6 7 8 9 10 11 13 13 13 13 14 13 13 15 15 15 14 14 14 13 13 14
3 1 3 2 1 2 6 3 5 6 5 4 4 2 5 3 2 5 6 7 8 5 5 6 6 7 7 6 8 9 9 10 11 12 12 11 11 12 10 10 12 14 14 14 13 13 11 11 11
2 2 4 2 1 1 6 5 1 2 2 4 5 6 5 1 2 6 5 8 7 7 8 7 6 4 4 4 7 8 9 10 11 11 11 11 6 7 7 9 11 12 12 13 11 10 9 5 6
1 2 5 6 5 4 7 2 8 3 6 5 6 8 6 6 5 6 5 5 7 6 5 6 7 6 1 2 6 6 6 5 5 6 7 5 5 6 8 8 11 11 12 9 7 5 7 8 5
0 2 6 4 7 7 3 2 1 2 6 7 4 8 7 8 7 8 7 7 6 4 5 6 6 4 2 2 0 2 3 3 2 6 5 4 5 6 5 3 3 3 8 4 5 5 4 5 4
3 3 3 4 4 2 3 4 1 6 4 7 8 7 7 8 8 7 7 6 5 5 6 5 4 4 3 2 7 8 6 6 5 6 8 4 4 6 5 4 5 4 4 4 4 2 4 4 4
5 4 2 2 2 4 2 4 6 1 9 8 7 7 8 7 6 7 5 7 7 7 8 8 8 4 4 8 8 7 7 6 6 7 8 7 7 7 6 5 5 5 4 4 4 4 5 6 7
4 6 5 6 7 5 4 6 5 2 9 8 6 8 7 7 4 6 6 7 7 6 6 8 11 9 10 9 11 8 7 7 8 7 8 11 7 7 7 6 5 6 4 4 4 4 3 3 4
4 5 8 10 9 5 4 8 10 7 8 8 7 7 6 5 5 6 4 8 6 5 7 7 8 10 11 10 11 9 8 9 8 8 12 11 10 10 8 8 6 5 4 5 4 4 3 5 5
3 5 3 2 12 5 8 9 9 11 10 9 10 9 8 6 6 6 7 7 5 6 8 9 9 10 10 11 10 9 9 10 9 9 9 12 12 11 9 6 6 5 7 6 4 6 5 6 5
6 5 8 5 8 7 9 8 5 9 9 9 9 9 8 7 7 6 9 6 5 8 8 10 9 10 10 11 10 11 12 10 9 9 8 10 10 10 9 9 8 9 9 8 7 7 6 7 8
7 8 7 7 8 7 8 14 7 9 10 10 10 10 9 8 7 6 8 6 6 8 9 10 9 9 10 8 10 10 11 9 8 9 8 11 10 12 10 10 10 8 7 7 7 6 6 6 8
9 11 9 8 6 6 10 12 11 14 9 10 10 10 9 9 8 7 7 6 7 8 9 9 10 7 6 7 9 9 10 9 10 9 11 12 10 11 10 8 8 7 9 9 10 6 6 10 11
11 12 13 8 4 5 7 12 10 11 15 17 13 10 10 9 8 7 7 7 7 8 8 9 8 6 6 5 7 7 8 10 9 8 10 11 12 10 10 8 8 7 7 9 10 8 4 4 9
10 11 10 9 8 6 4 11 14 12 11 10 7 9 9 12 10 8 8 8 9 8 8 8 8 9 9 11 10 11 10 7 8 8 8 9 11 11 10 10 8 9 8 7 8 8 9 5 5
11 8 10 8 4 6 8 12 5 8 12 11 8 7 9 10 10 8 10 10 10 9 9 9 9 10 10 11 8 9 9 11 7 8 8 8 10 11 10 10 9 9 6 8 6 6 6 6 7
5 5 3 4 6 8 8 10 3 8 12 16 13 10 10 10 10 9 10 12 11 9 8 7 7 7 8 10 10 10 12 9 7 7 10 10 9 8 9 8 8 7 5 5 7 6 7 4 4
8 5 4 2 0 11 9 11 17 13 14 6 12 13 12 12 10 9 8 11 10 10 9 8 8 7 8 9 9 11 13 10 9 7 8 6 5 5 7 8 6 6 6 6 5 6 7 5 5
6 7 2 3 4 10 1 11 15 3 3 7 19 17 15 14 13 13 12 9 10 11 8 8 9 10 9 10 9 9 10 10 10 7 7 7 5 4 6 7 7 5 6 6 5 6 5 5 4
11 10 7 6 6 5 1 10 7 3 6 6 16 17 16 15 13 14 12 11 10 11 9 10 10 12 10 10 10 8 9 7 7 7 7 6 5 5 6 6 6 6 5 5 5 4 4 6 5
7 10 2 4 0 2 7 7 3 4 2 8 14 17 18 17 16 15 14 12 11 11 10 11 11 11 10 9 9 8 8 9 9 8 8 6 6 6 6 6 5 5 6 7 7 5 6 6 5
4 8 3 3 6 7 7 11 10 7 10 9 16 18 18 17 17 15 14 14 11 9 8 10 10 11 10 10 8 8 8 9 9 8 8 8 6 6 6 6 6 7 7 7 7 5 5 5 4
6 7 6 7 5 5 3 8 5 11 16 20 17 17 18 18 17 16 14 13 11 10 11 11 11 12 11 9 8 9 8 9 9 8 7 7 6 6 6 6 6 6 6 6 5 5 4 5 5
15 11 15 6 7 7 3 10 4 5 10 14 17 17 17 17 16 15 15 14 13 13 12 11 11 10 9 10 10 9 9 9 8 7 7 7 7 6 6 6 6 5 5 5 5 5 5 5 5
Wind_Direction
291 263 290 309 322 182 122 83 94 111 92 61 67 20 84 53 27 95 136 69 102 130 130 144 139 138 136 127 128 130 134 136 130 118 111 106 98 89 81 77 71 63 61 60 59 59 57 54 53
307 308 263 277 245 176 95 129 90 69 78 99 153 195 102 71 85 110 97 73 157 132 136 146 140 139 145 130 133 140 146 129 126 123 115 105 91 83 80 78 72 65 62 60 59 58 54 55 57
263 275 293 233 273 32 114 100 99 102 76 13 115 35 35 15 31 80 85 106 169 133 144 138 149 143 148 132 139 141 132 127 130 130 117 106 97 90 84 79 74 67 62 61 61 60 59 59 55
322 211 271 291 91 27 93 87 94 119 105 358 332 90 82 30 59 59 98 103 99 135 129 140 145 142 141 138 141 139 131 128 130 123 121 106 100 96 88 83 81 73 67 64 63 61 59 58 59
226 269 280 264 72 89 52 70 183 128 120 126 317 90 88 73 61 114 118 112 111 138 114 127 139 150 147 148 147 147 145 136 136 128 121 114 110 104 99 91 87 78 69 66 62 60 58 57 54
302 194 288 222 153 104 99 100 169 154 94 111 245 104 79 59 72 53 78 61 112 106 120 127 124 126 148 164 169 158 148 137 135 134 126 122 117 112 108 102 95 83 76 69 62 59 55 51 47
304 350 285 337 118 124 138 104 227 181 154 82 350 72 119 77 53 87 87 92 78 93 119 137 146 154 132 170 168 156 148 135 134 135 127 122 118 114 111 106 105 97 88 79 70 67 62 56 48
300 280 308 268 251 208 101 170 28 358 60 127 16 92 133 80 357 107 91 96 84 90 124 144 151 166 168 161 163 150 149 144 142 136 129 121 118 116 116 103 102 96 90 81 72 70 68 64 58
298 312 262 191 301 303 117 182 114 47 145 59 44 60 85 87 194 122 106 98 72 39 20 3 109 80 346 148 153 155 154 148 138 134 133 134 137 131 99 93 90 98 90 81 73 70 76 83 61
275 314 337 10 30 346 133 313 151 180 188 126 103 103 75 75 40 85 55 88 75 56 32 358 2 121 328 8 151 154 148 147 142 147 153 157 150 110 96 85 83 81 89 80 69 65 49 47 43
51 258 11 65 23 359 104 191 93 267 265 38 110 107 79 78 57 64 61 56 44 13 40 17 348 358 134 312 3 94 71 89 85 149 183 142 110 99 98 85 60 62 60 35 33 29 66 76 73
291 242 343 31 65 336 305 295 143 226 90 83 69 87 99 82 73 58 53 51 32 28 28 353 326 307 137 50 66 68 64 60 49 44 39 103 85 88 84 71 58 41 50 46 36 9 45 39 91
213 261 84 279 100 252 328 273 258 277 124 104 97 93 92 82 87 86 55 68 50 26 15 345 297 238 102 84 81 71 71 65 57 42 42 72 75 78 77 67 62 55 38 29 20 26 25 11 350
24 339 280 215 218 218 221 250 217 163 123 125 138 113 91 87 49 80 44 58 46 34 21 17 35 66 79 79 84 78 72 67 59 54 48 62 71 77 70 60 50 53 30 32 31 38 17 4 355
306 301 267 225 207 235 164 274 229 141 141 145 157 127 122 118 89 76 51 74 42 44 42 39 53 64 80 86 87 84 78 71 64 56 54 55 63 68 68 67 39 49 26 37 32 10 14 10 350
252 224 279 318 173 145 142 260 221 144 160 172 176 161 156 134 115 88 75 76 62 72 67 60 62 64 76 87 89 88 82 79 71 67 65 67 66 66 66 65 50 360 38 13 18 18 29 13 1
208 261 230 198 178 132 183 268 149 153 181 195 176 168 169 140 123 97 87 85 72 82 85 77 71 74 82 83 83 83 81 76 68 69 68 69 72 76 73 61 52 39 48 28 20 25 38 9 349
211 213 240 240 191 170 193 259 181 187 195 213 183 174 164 166 127 105 98 99 95 91 94 90 85 85 93 99 96 87 81 76 71 67 62 65 62 61 66 66 58 49 49 38 30 28 31 19 348
287 302 286 290 133 161 224 238 238 194 209 211 211 176 171 154 130 127 110 112 107 105 106 105 107 102 110 106 105 94 93 85 79 72 65 62 63 61 60 55 53 53 51 40 32 12 18 20 357
238 254 264 275 184 165 254 263 265 191 205 205 201 178 165 128 141 143 125 124 110 114 115 112 111 124 109 106 99 98 104 89 83 76 67 62 60 58 68 68 61 55 57 47 37 36 18 24 18
250 239 251 244 285 202 283 262 244 252 209 203 197 174 160 150 148 152 140 131 122 120 122 122 119 112 103 104 108 106 103 89 84 72 73 61 62 60 61 59 60 53 48 41 35 27 30 29 1
249 228 242 263 285 252 175 284 229 252 227 178 173 166 140 145 141 156 144 139 133 134 132 127 128 126 124 132 124 105 108 105 100 97 89 75 67 62 60 56 56 61 58 54 41 40 36 26 25
221 52 359 196 246 286 248 281 249 203 233 212 186 167 158 147 144 157 148 135 127 124 117 111 103 95 97 97 102 109 107 108 112 109 102 88 68 65 67 64 59 60 55 45 43 37 40 44 54
122 84 67 32 246 254 187 216 274 226 216 188 166 167 162 147 146 145 124 134 132 126 125 125 115 100 97 104 104 112 116 117 110 98 93 88 80 61 60 60 58 50 46 46 42 45 47 40 33
157 132 224 262 207 248 111 220 246 285 158 174 168 166 160 154 154 144 147 143 142 136 129 127 122 113 109 109 106 104 104 105 106 106 104 99 89 68 59 62 53 50 48 42 27 54 37 43 30
189 182 173 223 210 269 42 241 249 34 39 125 155 156 152 159 154 153 157 154 147 142 147 138 130 120 111 105 102 99 95 97 93 95 99 94 89 86 76 67 65 62 57 48 32 44 32 31 15
179 222 223 67 43 311 225 262 305 143 102 129 150 160 163 163 159 161 158 158 152 152 148 137 128 123 120 115 109 106 104 105 109 102 93 89 91 89 78 78 76 60 49 39 26 29 15 17 6
218 155 134 150 212 231 258 238 233 215 191 175 172 173 170 164 160 164 162 156 156 150 134 130 132 132 128 123 121 117 112 102 98 93 96 100 98 96 93 75 57 47 39 35 24 16 351 4 334
157 199 191 167 212 200 287 258 337 196 182 184 181 178 175 172 165 166 162 158 157 149 149 147 140 138 136 129 123 115 112 108 105 105 108 113 110 99 78 67 58 47 39 25 16 357 354 340 320
216 206 203 181 209 228 183 257 9 44 168 171 173 175 172 173 168 166 165 161 160 158 154 152 145 143 139 134 126 119 114 113 112 116 119 118 106 93 84 71 60 43 34 16 2 350 330 318 321